Location: ??????
(41.3164°N, 22.6615°E)
Time: 17:23:59
(UTC+00:00)

CANX-2 - Pass Details

Date: 18 August 2022
Orbit: 591 x 608 km, 97.7° (Epoch: 01 October)

Event Time Altitude Azimuth Distance (km) Brightness Sun altitude
Rises 02:47:41 0° 4° (N) 2,855 ? -10.1°
Reaches altitude 10° 02:49:57 10° 356° (N) 1,951 ? -9.7°
Maximum altitude 02:53:52 38° 289° (WNW) 923 ? -9.1°
Drops below altitude 10° 02:57:48 10° 220° (SW) 1,947 ? -8.4°
Enters shadow 02:58:14 - 218° (SW) 2,116 ? -8.3°
